[[{"header":{"parameterUnit":"m.s-1","parameterCategory":1,"la1":30.2991,"la2":30.254,"lo1":-89.0895,"lo2":-89.0444,"dy":0.0017,"dx":0.0017,"nx":28,"ny":28,"refTime":"2024-06-13T09:00:00:Z","depth":0,"parameterNumber":2,"parameterNumberName":"U-component_of_WINDS"},"data":[0,0,0,0,0,0,0,0,0,0,0,0,0,0,0,0,0,0,0,0,0,0,0,0,0,0,0,0,0,0,0,0,0,0,0,0,0,0,0,0,0,0,0,0,0,0,0,0,0,0,0,0,0,0,0,0,0,0,0.6557,0.6557,0,0.6637,0.6638,0.6639,0.6678,0.6678,0.6678,0.6678,0.676,0.6762,0.6764,0,0,0,0,0,0,0,0,0,0,0,0,0,0.6435,0.6437,0.6556,0.6558,0.6559,0.6637,0.6638,0.6639,0.6678,0.6678,0.6678,0.6678,0.6759,0.6762,0.6765,0,0,0,0,0,0,0,0,0,0,0,0,0,0.6499,0.6437,0.6556,0.6587,0.6591,0.6637,0.6638,0.664,0.6678,0.6678,0.6678,0.6678,0.6758,0.6762,0.6765,0.6786,0,0,0.6775,0.6776,0,0,0,0,0,0,0,0,0.6495,0.6503,0.6582,0.6585,0.6589,0.6648,0.6625,0.6689,0.6678,0.6645,0.6678,0.6678,0.6723,0.6729,0.6744,0.679,0.6793,0.6775,0.6777,0.6779,0.678,0,0,0,0,0,0,0,0.649,0.65,0.6588,0.6583,0.6588,0.6597,0.6606,0.6638,0.6683,0.6648,0.6651,0.666,0.6725,0.6741,0.6746,0.6794,0.6775,0.6778,0.678,0.6781,0.6862,0.6862,0,0,0,0,0,0,0.6481,0.6496,0.6586,0.6591,0.6541,0.6599,0.6609,0.6629,0.6683,0.6691,0.666,0.6662,0.6735,0.6742,0.6749,0.6778,0.6779,0.6782,0.6784,0.6861,0.6862,0.6862,0,0,0,0,0,0,0.6478,0.6489,0.6583,0.6544,0.6557,0.6601,0.6623,0.6631,0.6647,0.6692,0.67,0.6668,0.6735,0.6745,0.6777,0.6781,0.6783,0.6786,0.6861,0.6862,0.6862,0.6834,0,0,0,0,0,0,0.6475,0.6488,0.6496,0.6544,0.6559,0.6609,0.6623,0.6632,0.6653,0.6655,0.6702,0.6709,0.6736,0.6771,0.678,0.6786,0.6789,0.6861,0.6861,0.6862,0.6835,0.6834,0.6832,0,0,0,0,0,0.647,0.6485,0.6496,0.6507,0.6571,0.6609,0.6617,0.6648,0.6653,0.6662,0.6691,0.6708,0.6779,0.6774,0.6784,0.6791,0.6861,0.6861,0.6862,0.6836,0.6834,0.6832,0,0,0,0,0,0,0.6436,0.6492,0.6505,0.6536,0.6568,0.6615,0.6628,0.6645,0.6676,0.6677,0.6714,0.6724,0.6752,0.6775,0.6769,0.6814,0.6822,0.6824,0.6799,0.6797,0.6796,0.679,0.6792,0,0,0,0,0,0.6432,0.6459,0.6506,0.6529,0.6544,0.6583,0.6601,0.6622,0.6656,0.6669,0.67,0.6732,0.6762,0.6781,0.6811,0.6838,0.6849,0.6848,0.6847,0.6845,0.6847,0.6863,0.6863,0.6863,0.6863,0.6863,0,0,0.6424,0.6458,0.6473,0.6523,0.655,0.6576,0.6594,0.6621,0.6642,0.6673,0.6706,0.6729,0.6768,0.6798,0.6812,0.6817,0.6849,0.6846,0.6844,0.6847,0.6864,0.6864,0.6864,0.6863,0.6863,0.6863,0,0,0.6424,0.6452,0.6474,0.6501,0.6541,0.6567,0.6572,0.6618,0.6635,0.6668,0.6693,0.6717,0.6767,0.6793,0.6813,0.6823,0.684,0.6831,0.6824,0.684,0.684,0.684,0.6844,0.6845,0.6833,0.6833,0.6833,0,0.6409,0.645,0.6483,0.651,0.6531,0.6561,0.6583,0.6608,0.6655,0.6669,0.6674,0.6738,0.6766,0.6803,0.6805,0.682,0.6827,0.6826,0.6837,0.6838,0.6839,0.6842,0.6844,0.6831,0.6831,0.6832,0.6832,0,0.643,0.6458,0.6471,0.6517,0.654,0.6564,0.66,0.6619,0.6638,0.6663,0.6697,0.6731,0.6768,0.6779,0.6797,0.6818,0.682,0.683,0.6839,0.6837,0.6841,0.6843,0.6829,0.683,0.683,0.6831,0,0,0.641,0.6474,0.6479,0.65,0.6547,0.6569,0.6595,0.6632,0.6647,0.6679,0.6701,0.6743,0.6754,0.6776,0.6798,0.6812,0.6817,0.6821,0.6822,0.6819,0.6842,0.6834,0.6835,0.6829,0.6829,0.6829,0.6839,0,0.6416,0.6464,0.6494,0.653,0.6556,0.6585,0.6608,0.6638,0.6663,0.6689,0.6715,0.6744,0.6756,0.677,0.6784,0.6813,0.6822,0.6813,0.685,0.6851,0.684,0.6838,0.6829,0.6837,0.6841,0.6841,0.6842,0,0.643,0.6462,0.65,0.6544,0.6556,0.6576,0.6612,0.6637,0.6672,0.6689,0.6714,0.6736,0.6764,0.677,0.6809,0.6802,0.6818,0.6835,0.6836,0.6841,0.6846,0.6842,0.684,0.6841,0.6844,0.6844,0.6844,0,0.6412,0.6464,0.6494,0.6511,0.6564,0.6577,0.6599,0.6635,0.6655,0.6686,0.67,0.6734,0.6753,0.6779,0.6809,0.6811,0.6845,0.6853,0.686,0.6859,0.6866,0.6865,0.6866,0.6876,0.6876,0.6876,0.6876,0,0.6416,0.6438,0.6487,0.6505,0.6531,0.6565,0.6589,0.6614,0.6645,0.6669,0.6696,0.6717,0.6756,0.6782,0.6806,0.6835,0.6843,0.6857,0.6864,0.6855,0.6853,0.6867,0.6867,0.6877,0.6877,0.6876,0.6876,0,0.64,0.6434,0.6468,0.6515,0.6527,0.6544,0.6584,0.6602,0.6628,0.6657,0.6666,0.6706,0.6738,0.6771,0.6815,0.6831,0.6859,0.6867,0.6847,0.6851,0.6855,0.6854,0.6865,0.6869,0.6876,0.6876,0.6875,0,0.6401,0.6419,0.6467,0.6485,0.6507,0.6535,0.6556,0.659,0.6611,0.6653,0.6667,0.6701,0.673,0.678,0.6813,0.6846,0.6856,0.6857,0.6861,0.6852,0.6856,0.6855,0.6857,0.6856,0.6856,0.6855,0.6855,0,0.6398,0.6413,0.6443,0.6478,0.6502,0.6532,0.6562,0.6575,0.6615,0.6637,0.667,0.6693,0.6737,0.6771,0.6808,0.6831,0.685,0.6854,0.6857,0.6849,0.6836,0.6843,0.6844,0.6853,0.6854,0.6854,0.6854,0.6854,0.639,0.6408,0.6445,0.6477,0.6503,0.6531,0.6551,0.6579,0.6608,0.6647,0.6665,0.6698,0.6734,0.6786,0.6808,0.6835,0.684,0.6845,0.6846,0.6847,0.6845,0.6832,0.6842,0.6842,0.6842,0.6842,0.6842,0,0.6389,0.6415,0.6444,0.6485,0.651,0.6526,0.656,0.658,0.6609,0.6641,0.6669,0.6707,0.674,0.6776,0.6811,0.6825,0.6835,0.6833,0.6832,0.6837,0.6838,0.6832,0.6825,0.6825,0.6825,0.6825,0.6825,0.6825,0.6391,0.6422,0.6442,0.6485,0.6511,0.6544,0.6562,0.6588,0.6613,0.6655,0.6682,0.6705,0.6738,0.6776,0.6807,0.6816,0.6828,0.6824,0.6836,0.6836,0.6837,0.6839,0.6833,0.6826,0.6826,0.6833,0.6833,0.6833]},{"header":{"parameterUnit":"m.s-1","parameterCategory":1,"la1":30.2991,"la2":30.254,"lo1":-89.0895,"lo2":-89.0444,"dy":0.0017,"dx":0.0017,"nx":28,"ny":28,"refTime":"2024-06-13T09:00:00:Z","depth":0,"parameterNumber":3,"parameterNumberName":"V-component_of_WINDS"},"data":[0,0,0,0,0,0,0,0,0,0,0,0,0,0,0,0,0,0,0,0,0,0,0,0,0,0,0,0,0,0,0,0,0,0,0,0,0,0,0,0,0,0,0,0,0,0,0,0,0,0,0,0,0,0,0,0,0,0,1.6356,1.6356,0,1.6294,1.6293,1.6292,1.6252,1.6252,1.6252,1.6252,1.6183,1.6181,1.618,0,0,0,0,0,0,0,0,0,0,0,0,0,1.6437,1.6436,1.6356,1.6356,1.6355,1.6294,1.6293,1.6292,1.6252,1.6252,1.6252,1.6251,1.6183,1.6181,1.6179,0,0,0,0,0,0,0,0,0,0,0,0,0,1.6391,1.6435,1.6357,1.6328,1.6325,1.6294,1.6293,1.6292,1.6252,1.6252,1.6252,1.6251,1.6184,1.6182,1.6179,1.6171,0,0,1.6172,1.6171,0,0,0,0,0,0,0,0,1.6393,1.6388,1.6333,1.633,1.6326,1.6281,1.6296,1.6251,1.6252,1.628,1.6252,1.6251,1.6215,1.621,1.6199,1.6168,1.6165,1.6171,1.617,1.6169,1.6168,0,0,0,0,0,0,0,1.6397,1.639,1.6331,1.6332,1.6328,1.6316,1.6309,1.6287,1.625,1.6277,1.6274,1.6268,1.6213,1.6202,1.6197,1.6164,1.6172,1.6169,1.6168,1.6167,1.6122,1.6122,0,0,0,0,0,0,1.6405,1.6393,1.6333,1.633,1.636,1.6315,1.6307,1.6295,1.625,1.6243,1.6268,1.6266,1.6206,1.62,1.6195,1.6181,1.6169,1.6167,1.6165,1.6121,1.6122,1.6122,0,0,0,0,0,0,1.6407,1.64,1.6336,1.6361,1.6352,1.6314,1.6301,1.6294,1.6283,1.6243,1.6236,1.6263,1.6205,1.6198,1.6177,1.6178,1.6166,1.6163,1.6121,1.6122,1.6122,1.6156,0,0,0,0,0,0,1.6409,1.6401,1.6399,1.6361,1.635,1.6321,1.6301,1.6293,1.6279,1.6276,1.6237,1.623,1.6204,1.6181,1.6175,1.6175,1.6162,1.6121,1.6121,1.6122,1.6154,1.6157,1.616,0,0,0,0,0,1.6412,1.641,1.6399,1.6392,1.6347,1.6321,1.6315,1.6288,1.6279,1.6276,1.625,1.6231,1.618,1.6179,1.6172,1.6171,1.6121,1.6121,1.6122,1.6153,1.6156,1.6159,0,0,0,0,0,0,1.6447,1.6404,1.6392,1.6377,1.6353,1.6315,1.631,1.6292,1.6269,1.6267,1.6232,1.6224,1.6206,1.6187,1.6187,1.6161,1.6148,1.6147,1.6174,1.6177,1.618,1.6184,1.616,0,0,0,0,0,1.6453,1.6438,1.6401,1.6391,1.638,1.6347,1.6335,1.6316,1.6289,1.6279,1.6252,1.6225,1.6203,1.6189,1.6166,1.6151,1.6141,1.6147,1.615,1.6152,1.6152,1.6141,1.6143,1.6124,1.6124,1.6124,0,0,1.6465,1.644,1.6432,1.6397,1.6377,1.636,1.6339,1.6322,1.6308,1.6275,1.6254,1.6234,1.6202,1.6184,1.6175,1.6167,1.6155,1.6153,1.6155,1.6153,1.6142,1.6144,1.6145,1.6124,1.6124,1.6124,0,0,1.6478,1.6459,1.6448,1.6428,1.6398,1.6376,1.6374,1.6338,1.6323,1.6302,1.6277,1.626,1.6223,1.6201,1.6185,1.619,1.6171,1.6184,1.6197,1.6188,1.6189,1.619,1.6191,1.6192,1.6183,1.6183,1.6184,0,1.6497,1.6472,1.6445,1.6429,1.6414,1.6385,1.6374,1.6355,1.6319,1.6308,1.6301,1.6253,1.623,1.6206,1.6208,1.6196,1.6191,1.6188,1.6191,1.6192,1.6193,1.6193,1.6194,1.6185,1.6185,1.6185,1.6185,0,1.6495,1.6478,1.6473,1.6441,1.6425,1.6412,1.6381,1.6368,1.635,1.6329,1.6307,1.6278,1.6249,1.6242,1.6224,1.6215,1.6211,1.6198,1.6184,1.6197,1.6196,1.6196,1.6188,1.6187,1.6186,1.6186,0,0,1.6528,1.6481,1.6479,1.6463,1.6428,1.6414,1.6398,1.6372,1.6361,1.6336,1.6322,1.6291,1.6279,1.6261,1.624,1.6232,1.6237,1.6219,1.6218,1.6223,1.6224,1.6233,1.6234,1.6224,1.6224,1.6224,1.6226,0,1.6535,1.6508,1.6483,1.6464,1.6447,1.642,1.6406,1.6382,1.6362,1.6343,1.632,1.6299,1.6285,1.6273,1.6264,1.6238,1.6236,1.6238,1.6208,1.6208,1.6217,1.6234,1.6244,1.6248,1.6226,1.6226,1.6226,0,1.6539,1.6518,1.6498,1.6464,1.6456,1.6445,1.6418,1.6401,1.6373,1.6359,1.6339,1.6317,1.6298,1.6288,1.626,1.6262,1.6248,1.6234,1.6233,1.6228,1.6217,1.6229,1.6248,1.6248,1.6226,1.6226,1.6226,0,1.6564,1.653,1.6513,1.6501,1.6461,1.6454,1.6437,1.6408,1.6394,1.637,1.6359,1.6333,1.6318,1.6298,1.6269,1.6264,1.6244,1.6231,1.623,1.6231,1.6226,1.6227,1.6243,1.622,1.622,1.6219,1.6219,0,1.6574,1.6563,1.6524,1.6514,1.65,1.6471,1.6457,1.6437,1.6412,1.6397,1.6371,1.6356,1.632,1.63,1.6278,1.6258,1.6251,1.6238,1.6232,1.624,1.6241,1.623,1.6228,1.622,1.622,1.622,1.622,0,1.6599,1.6573,1.6553,1.6517,1.6508,1.6499,1.6468,1.6456,1.6435,1.6415,1.6408,1.6374,1.635,1.632,1.6285,1.627,1.6252,1.6243,1.6262,1.6258,1.6259,1.6259,1.6267,1.6266,1.6245,1.6245,1.6245,0,1.6606,1.6597,1.6561,1.655,1.6534,1.6515,1.65,1.6471,1.6456,1.6424,1.6416,1.639,1.6368,1.633,1.6301,1.6274,1.6264,1.6269,1.6259,1.6268,1.6263,1.6263,1.6262,1.627,1.6271,1.6271,1.6271,0,1.6622,1.661,1.6591,1.6567,1.655,1.653,1.6507,1.6499,1.6465,1.6449,1.6425,1.6408,1.6374,1.6348,1.6318,1.6298,1.6279,1.6275,1.6273,1.628,1.6291,1.6284,1.6267,1.6274,1.6274,1.6274,1.6274,1.6274,1.6638,1.6628,1.6601,1.658,1.6561,1.6541,1.6529,1.6506,1.6486,1.6457,1.644,1.6417,1.6387,1.6345,1.6326,1.6306,1.6299,1.6296,1.6296,1.6295,1.6297,1.6296,1.63,1.63,1.63,1.63,1.63,0,1.6652,1.6633,1.6615,1.6585,1.6569,1.6554,1.6528,1.6515,1.6495,1.647,1.645,1.6421,1.6396,1.6365,1.6338,1.6327,1.6317,1.6321,1.6321,1.6316,1.6306,1.631,1.6329,1.6329,1.6329,1.6329,1.6329,1.6329,1.6657,1.664,1.6624,1.6597,1.6578,1.6556,1.6542,1.6523,1.6504,1.6474,1.6454,1.6434,1.6407,1.6377,1.6353,1.6344,1.6335,1.6341,1.6329,1.632,1.6317,1.6315,1.6318,1.6339,1.6339,1.6341,1.6341,1.6341]}]]